カタログに戻る

OPS 1292

運用中軍事PO
NORAD 11852·PAYLOAD·🇺🇸 United States

打ち上げ Jun 18, 1980 から Vandenberg Space Force Base

Loading…

次のパス (今後24時間)

TLE

最新Source: Space-Track

元期: Sep 14, 2026, 11:04 UTC

1 11852U 80052C   26257.46168945 -.00000007  00000-0  46804-4 0  9991
2 11852  96.6169 148.7717 0003518  48.7206 311.4202 12.83722732109432

AllMySatでOPS 1292をリアルタイム追跡

Download on the App Store